Location: Bailleul
(50.3375°N, 2.8513°E)
Time: 06:54:36
(UTC+00:00)

Cosmos 2034 Rocket - Visible Passes

Search period start: 26 October 2021 00:00
Search period end: 05 November 2021 00:00
Orbit: 957 x 1001 km, 82.9° (Epoch: 25 October)

Date Brightness Start Highest point End Pass type
(mag) Time Alt. Az. Time Alt. Az. Time Alt. Az.
30 Oct 6.5 05:49:15 10° NNE 05:52:28 14° NE 05:55:40 10° E visible
02 Nov 6.6 05:23:39 10° NNE 05:26:28 13° NE 05:29:17 10° E visible
03 Nov 6.3 05:49:03 10° NNE 05:53:41 21° ENE 05:58:16 10° ESE visible
